This demonstration page uses our WeatherBlox Daily Observations layout. Learn more.

Left ArrowRight Arrow

39.08367, -84.50855

Hourly Observations for September 1, 2017

Temp ( °F °C ) Dew Point ( °F °C ) Humidity (%) Winds ( mph kmh ) Pressure ( in mb ) Visibility ( mi km ) Precip ( " mm )
12:53 am 00:53 Clear 65 18.3 56 13.3 73 73 NE 12 19 30.04 1017 10 16 N/A
1:53 am 01:53 Mostly Cloudy 64 17.8 55 12.8 73 73 NE 12 19 30.05 1018 10 16 N/A
2:53 am 02:53 Clear 63 17.2 54 12.2 73 73 NE 9 15 30.04 1017 10 16 N/A
3:53 am 03:53 Clear 63 17.2 51 10.6 65 65 NE 10 17 30.03 1017 10 16 N/A
4:53 am 04:53 Mostly Clear 62 16.7 51 10.6 67 67 NE 8 13 30.01 1016 10 16 N/A
5:53 am 05:53 Clear 62 16.7 51 10.6 67 67 NE 13 20 30.01 1016 10 16 N/A
6:53 am 06:53 Mostly Cloudy 62 16.7 51 10.6 67 67 NE 18 30 30.00 1016 10 16 N/A
7:53 am 07:53 Mostly Cloudy with Light Rain 61 16.1 51 10.6 70 70 NE 9 15 30.00 1016 10 16 N/A
8:53 am 08:53 Cloudy with Light Rain 59 15 53 11.7 81 81 NE 12 19 30.01 1016 8 13 0.01 0.25
9:53 am 09:53 Cloudy with Light Rain 57 13.9 54 12.2 90 90 NE 5 7 30.03 1017 6 10 0.04 1.02
10:53 am 10:53 Cloudy with Light Rain 57 13.9 54 12.2 90 90 NE 8 13 30.02 1017 9 14 0.03 0.76
11:53 am 11:53 Cloudy with Light Rain 57 13.9 54 12.2 90 90 NE 15 24 30.01 1016 6 10 0.04 1.02
12:53 pm 12:53 Cloudy with Light Rain 57 13.9 57 13.9 100 100 NE 13 20 29.99 1016 10 16 0.04 1.02
1:53 pm 13:53 Cloudy with Light Rain 57 13.9 56 13.3 96 96 NE 15 24 30.01 1016 10 16 N/A
2:53 pm 14:53 Cloudy with Light Rain 57 13.9 56 13.3 96 96 NE 15 24 29.98 1015 8 13 0.08 2.03
3:53 pm 15:53 Cloudy with Light Rain 56 13.3 55 12.8 97 97 NE 17 28 29.96 1015 7 11 0.05 1.27
4:53 pm 16:53 Cloudy with Light Rain 56 13.3 56 13.3 100 100 NNE 12 19 29.97 1015 5 8 0.01 0.25
5:11 pm 17:11 Cloudy with Heavy Rain 56 13.3 56 13.3 100 100 NNE 15 24 29.97 1015 2 3 0.04 1.02
5:20 pm 17:20 Cloudy with Light Rain 55 12.8 55 12.8 100 100 NNE 13 20 29.97 1015 4 6 0.05 1.27
5:53 pm 17:53 Cloudy with Light Rain 56 13.3 56 13.3 100 100 NNE 12 19 29.97 1015 5 8 0.07 1.78
6:08 pm 18:08 Cloudy with Rain 55 12.8 55 12.8 100 100 NNE 15 24 29.97 1015 5 8 0.03 0.76
6:19 pm 18:19 Cloudy with Light Rain 55 12.8 55 12.8 100 100 NNE 10 17 29.97 1015 5 8 0.04 1.02
6:53 pm 18:53 Cloudy with Rain 55 12.8 55 12.8 100 100 NNE 14 22 29.97 1015 3 5 0.13 3.30
7:53 pm 19:53 Cloudy with Light Rain 55 12.8 55 12.8 100 100 NNE 12 19 29.96 1015 8 13 0.03 0.76
8:53 pm 20:53 Cloudy with Rain 55 12.8 54 12.2 96 96 NNE 14 22 29.96 1014 4 6 0.13 3.30
9:53 pm 21:53 Cloudy with Rain 55 12.8 54 12.2 96 96 NE 14 22 29.96 1014 7 11 0.14 3.56
10:32 pm 22:32 Cloudy with Rain 54 12.2 54 12.2 100 100 NE 13 20 29.97 1015 3 5 0.12 3.05
10:45 pm 22:45 Cloudy with Rain 55 12.8 54 12.2 96 96 NE 12 19 29.97 1015 4 6 0.14 3.56
10:53 pm 22:53 Cloudy with Heavy Rain 55 12.8 54 12.2 96 96 NNE 8 13 29.96 1015 2 3 0.21 5.33
11:06 pm 23:06 Cloudy with Rain 54 12 N/A N/A NNE 13 20 29.97 1015 3 5 0.06 1.52
11:53 pm 23:53 Cloudy with Rain 55 13 N/A N/A NE 13 20 29.94 1014 6 10 0.08 2.03

Powered by AerisWeather